Location: Bishop�s Knoyle
(51.0728°N, 2.1714°W)
Time: 23:26:51
(UTC+00:00)

Cosmos 1680 Rocket - Pass Details

Date: 18 September 2020
Orbit: 760 x 781 km, 74.1° (Epoch: 30 October)

Event Time Altitude Azimuth Distance (km) Brightness Sun altitude
Rises 18:51:23 0° 332° (NNW) 3,235 7.4 -6.5°
Reaches altitude 10° 18:53:49 10° 327° (NNW) 2,306 6.7 -6.9°
Maximum altitude 18:58:52 51° 253° (WSW) 955 4.5 -7.6°
Drops below altitude 10° 19:03:54 10° 178° (S) 2,301 5.8 -8.4°
Sets 19:06:19 0° 174° (S) 3,227 6.5 -8.8°
